FORMOSAT-3 FM1

Last updated on Tue Mar 15 2022 00:02:21 GMT+0000 (Coordinated Universal Time)

1 29048U 06011B 22073.58833925 .00000280 00000+0 12617-3 0 9997 2 29048 71.9670 163.6623 0043569 3.1625 356.9778 14.28869704834487
UTC large
Height (km)
Speed (km/s)
/
Latitude / Longitude
Inclination (degrees)
Orbital Period (minutes)
Azimuth
Elevation
Range (km)
Doppler Factor

Next 0 passes for location: London (51.5072 / 0.1276)

Sorry there are no passes over London.